Location: *
(37.5724°S, 58.0067°E)
Time: 10:56:42
(UTC+00:00)

Cosmos 1455 Rocket - Pass Details

Date: 26 September 2020
Orbit: 604 x 630 km, 82.5° (Epoch: 30 October)

Event Time Altitude Azimuth Distance (km) Brightness Sun altitude
Rises 14:57:06 0° 180° (S) 2,959 6.7 -10.5°
Reaches altitude 10° 14:59:29 10° 172° (S) 2,043 5.8 -10.9°
Maximum altitude 15:03:47 42° 101° (E) 916 3.5 -11.8°
Drops below altitude 10° 15:08:02 10° 30° (NNE) 2,012 5.3 -12.6°
Enters shadow 15:09:11 - 25° (NNE) 2,457 5.8 -12.8°
